Location: *
(46.3500°N, 10.9000°E)
Time: 23:20:27
(UTC+00:00)

Vanguard 2 - Pass Details

Date: 19 April 2021
Orbit: 552 x 2938 km, 32.9° (Epoch: 12 May)

Event Time Altitude Azimuth Distance (km) Brightness Sun altitude
Rises 11:59:48 0° 231° (SW) 6,637 12.7 53.8°
Reaches altitude 10° 12:05:04 10° 224° (SW) 5,412 12.6 53.5°
Maximum altitude 12:17:58 35° 168° (SSE) 3,007 11.7 52.6°
Drops below altitude 10° 12:26:50 10° 108° (ESE) 3,715 11.1 51.9°
Sets 12:29:42 0° 99° (E) 4,393 11.3 51.6°
